Search your local weather  

 
Advertise Here

Hazardous Weather Conditions

No active alerts for LOS ANGELES, CALIFORNIA

Current Conditions: LOS ANGELES, CALIFORNIA

Fair


63.0 F

Last Updated on Apr 21 2019, 2:51 pm PDT
Humidity: 52%
Wind Speed: W 11.5 G 17.3 mph
Barometer 30.00 in
Dewpoint: 45.0 F
Visibility: 10.00 mi
Precip: --
Heat Index: NA
Wind Chill: 62 F
Current conditions at:

Santa Monica, Santa Monica Municipal Airport, CA (KSMO)

Lat: 34.01 Lon: -118.45

Local Radar Image active severe weather and emergency alerts image image weather storm and storm spotter reports image weather observation monitoring service image
Local
Radar
Active
Alerts
Storm Reports Weather
Monitoring

Weather Alert Notification Services


ialert severe weather and emergency alerts by text message and email ialert daily weather forecast by email and text message service ialert real-time weather-observation monitoring and alert notification service ialert storm report monitoring alert notification

Observation History for LOS ANGELES, CALIFORNIA


Time Wind
(mph)
Vis
(mi)
Weather Precip (in) Temperature (F) Relative
Humidity
Wind
Chill
(°F)
Heat
Index
(°F)
Pressure
Air Dwpt altimeter
(in)
sea level
(mb)
2:51 pm PDT W 11.5 G 17.3 10.00 Fair -- 63.0 45.0 52% 62 NA 30.00 1015.8
1:51 pm PDT SW 10.4 10.00 Fair -- 63.0 46.0 54% 62 NA 30.01 1016.2
12:51 pm PDT W 9.2 10.00 Fair -- 64.0 46.0 52% NA NA 30.03 1016.7
11:51 am PDT SW 9.2 10.00 Fair -- 63.0 46.9 56% 62 NA 30.04 1017.2
10:51 am PDT SW 6.9 10.00 Partly Cloudy -- 61.0 48.0 63% 60 NA 30.04 1017.3
9:51 am PDT S 4.6 10.00 Mostly Cloudy -- 60.0 48.0 65% 60 NA 30.04 1017.3
8:51 am PDT N 0.0 10.00 Overcast -- 58.0 48.9 72% NA NA 30.04 1017.1
7:51 am PDT N 0.0 10.00 Mostly Cloudy -- 56.0 51.1 84% NA NA 30.03 1016.7
6:51 am PDT N 0.0 10.00 A Few Clouds -- 55.0 50.0 83% NA NA 30.01 1016.3
5:51 am PDT N 0.0 10.00 Fair -- 55.0 50.0 83% NA NA 30.01 1016.2
4:51 am PDT S 3.5 10.00 Mostly Cloudy -- 56.0 50.0 81% NA NA 30.00 1015.9
3:51 am PDT SW 3.5 10.00 Overcast -- 56.0 51.1 84% NA NA 30.00 1015.9
2:51 am PDT SW 5.8 10.00 Overcast -- 57.0 52.0 83% 56 NA 30.00 1015.8
1:51 am PDT S 4.6 10.00 Overcast -- 57.0 52.0 83% 57 NA 30.01 1016.1
12:51 am PDT SW 4.6 10.00 Overcast -- 57.0 52.0 83% 57 NA 30.01 1016.1
11:51 pm PDT SW 5.8 10.00 Overcast -- 58.0 52.0 81% 57 NA 30.01 1016.0
10:51 pm PDT S 3.5 10.00 Overcast -- 58.0 53.1 84% NA NA 30.00 1015.9
9:51 pm PDT S 4.6 10.00 Overcast -- 58.0 53.1 84% 58 NA 30.00 1015.9
8:51 pm PDT SW 5.8 10.00 Overcast -- 58.0 52.0 81% 57 NA 29.99 1015.5
7:51 pm PDT SW 5.8 10.00 Overcast -- 58.0 52.0 81% 57 NA 29.97 1014.9
6:51 pm PDT W 9.2 10.00 Overcast -- 59.0 51.1 75% 57 NA 29.98 1014.9
5:51 pm PDT W 8.1 10.00 Overcast -- 59.0 51.1 75% 58 NA 29.97 1014.8
4:51 pm PDT W 9.2 10.00 Overcast -- 60.0 51.1 72% 59 NA 29.98 1015.1
3:51 pm PDT SW 8.1 10.00 Fair -- 62.0 51.1 67% 61 NA 29.98 1015.0

Regional Weather Observation

Los Angeles / USC Campus Downtown, CA (KCQT)

Fair
66.0 F

Burbank - Bob Hope Airport, CA (KBUR)

Fair
68.0 F

Los Angeles, Whiteman Airport, CA (KWHP)

Clear
68.0 F

El Monte, CA (KEMT)

Partly Cloudy
66.0 F

Los Angeles, Los Angeles International Airport, CA (KLAX)

A Few Clouds
65.0 F

Hawthorne, Hawthorne Municipal Airport, CA (KHHR)

Fair
66.0 F
Advertise Here

Advertise Here